FW5345 Weather Reports


time (UTC)temp
F
wind
direction
speed
knots
gust
knots
rain 1hr
in
rain 24hr
in
rain mn
in
humidity
%
barometer
mb
20260509164535 58 326 2.6 5.2 0.00 0.00 0.00 55 1021.7
20260509161642 56 339 1.7 4.3 0.00 0.00 0.00 59 1021.8
20260509160032 55 341 1.7 4.3 0.00 0.00 0.00 62 1021.8
20260509154536 53 348 1.7 3.5 0.00 0.00 0.00 65 1021.9
20260509153033 52 347 1.7 2.6 0.00 0.00 0.00 66 1021.8
20260509150035 50 136 0.9 2.6 0.00 0.00 0.00 69 1021.6
20260509144642 49 112 1.7 3.5 0.00 0.00 0.00 72 1021.6
20260509143032 47 129 1.7 3.5 0.00 0.00 0.00 75 1021.6
20260509141533 45 157 0.9 1.7 0.00 0.00 0.00 78 1021.5
20260509134537 41 145 3.5 5.2 0.00 0.00 0.00 84 1021.3
20260509133034 39 155 3.5 4.3 0.00 0.00 0.00 86 1021.3
20260509131536 40 150 2.6 3.5 0.00 0.00 0.00 82 1021.3
20260509130033 41 157 1.7 3.5 0.00 0.00 0.00 80 1021.0
20260509123033 42 135 1.7 3.5 0.00 0.00 0.00 81 1020.9
20260509120030 42 157 2.6 5.2 0.00 0.00 0.00 83 1020.9
20260509110110 44 128 2.6 4.3 0.00 0.00 0.00 82 1021.0
20260509104535 44 123 2.6 3.5 0.00 0.00 0.00 83 1021.0
20260509103036 44 150 2.6 7.0 0.00 0.00 0.00 83 1021.1
20260509101530 44 142 2.6 4.3 0.00 0.00 0.00 83 1021.2
20260509100035 44 130 2.6 4.3 0.00 0.00 0.00 83 1021.3
20260509094643 45 149 3.5 4.3 0.00 0.00 0.00 81 1021.4
20260509093035 46 154 2.6 5.2 0.00 0.00 0.00 80 1021.6
20260509091533 47 135 1.7 3.5 0.00 0.00 0.00 78 1021.7
20260509090108 48 159 4.3 7.8 0.00 0.00 0.00 77 1021.8
20260509084610 47 131 4.3 7.8 0.00 0.00 0.00 78 1022.0
20260509083034 46 131 3.5 7.0 0.00 0.00 0.00 80 1022.2
20260509081535 47 151 2.6 5.2 0.00 0.00 0.00 79 1022.3
20260509073108 47 152 2.6 6.1 0.00 0.00 0.00 81 1022.8
20260509070109 48 175 3.5 5.2 0.00 0.00 0.00 78 1022.8
20260509063034 52 172 1.7 4.3 0.00 0.00 0.00 71 1023.0
20260509061642 54 257 0.0 1.7 0.00 0.00 0.00 67 1022.9
20260509054532 54 47 0.9 3.5 0.00 0.00 0.00 66 1022.9
20260509051542 54 74 2.6 4.3 0.00 0.00 0.00 65 1022.8
20260509050111 55 31 1.7 3.5 0.00 0.00 0.00 64 1022.7
20260509044529 55 324 1.7 6.1 0.00 0.00 0.00 64 1022.6
20260509043036 55 291 1.7 8.7 0.00 0.00 0.00 64 1022.5
20260509041533 55 306 0.9 4.3 0.00 0.00 0.00 62 1022.4
20260509034532 56 265 0.9 7.0 0.00 0.00 0.00 60 1022.1
20260509033108 57 226 0.9 5.2 0.00 0.00 0.00 59 1021.9
20260509030034 58 276 1.7 8.7 0.00 0.00 0.00 56 1021.6
20260509024534 59 283 3.5 9.6 0.00 0.00 0.00 53 1021.5
20260509023037 60 278 3.5 8.7 0.00 0.00 0.00 51 1021.4
20260509021534 61 287 3.5 11.3 0.00 0.00 0.00 48 1021.3
20260509013036 63 274 5.2 14.8 0.00 0.00 0.00 42 1021.1
20260509011534 64 265 4.3 11.3 0.00 0.00 0.00 40 1021.1
20260509010029 64 264 3.5 13.0 0.00 0.00 0.00 40 1021.1
20260509004537 64 288 5.2 13.0 0.00 0.00 0.00 39 1020.9
20260509001645 67 288 4.3 12.2 0.00 0.00 0.00 35 1020.5
20260508234535 67 270 4.3 9.6 0.00 0.00 0.00 34 1020.4
20260508233032 66 311 2.6 7.0 0.00 0.00 0.00 33 1020.3
20260508231534 67 276 5.2 13.9 0.00 0.00 0.00 32 1020.3
20260508224533 67 296 7.0 16.5 0.00 0.00 0.00 29 1020.1
20260508223150 67 327 1.7 7.8 0.00 0.00 0.00 29 1020.1
20260508221537 67 290 5.2 13.9 0.00 0.00 0.00 27 1020.1
20260508220034 67 213 3.5 11.3 0.00 0.00 0.00 27 1020.1
20260508214531 67 247 4.3 16.5 0.00 0.00 0.00 26 1020.2
20260508213033 66 243 5.2 13.0 0.00 0.00 0.00 25 1020.2
20260508211535 66 272 5.2 17.4 0.00 0.00 0.00 24 1020.1
20260508210035 65 246 6.1 18.2 0.00 0.00 0.00 22 1020.0
20260508204532 65 230 6.1 16.5 0.00 0.00 0.00 24 1020.1
20260508203116 65 283 7.0 14.8 0.00 0.00 0.00 27 1019.9
20260508201529 64 278 5.2 15.6 0.00 0.00 0.00 27 1019.9
20260508200029 63 227 5.2 13.0 0.00 0.00 0.00 25 1019.9
20260508193037 64 238 6.1 18.2 0.00 0.00 0.00 27 1019.7
20260508191643 64 230 6.1 21.7 0.00 0.00 0.00 29 1019.6
20260508190031 65 246 4.3 13.0 0.00 0.00 0.00 32 1019.6
20260508184531 62 266 4.3 9.6 0.00 0.00 0.00 41 1019.6
20260508183036 59 343 3.5 9.6 0.00 0.00 0.00 55 1019.5
20260508181538 56 8 3.5 5.2 0.00 0.00 0.00 59 1019.3
20260508180036 54 22 1.7 3.5 0.00 0.00 0.00 61 1019.4
20260508174535 54 6 0.0 2.6 0.00 0.00 0.00 61 1019.4
20260508173035 54 19 1.7 5.2 0.00 0.00 0.00 63 1019.1
20260508171536 53 53 0.9 3.5 0.00 0.00 0.00 64 1018.9
20260508170030 53 26 1.7 6.1 0.00 0.00 0.00 64 1019.0